Weather observations for the past three days for
Takotna, Tatalina LRRS Airport
| Date | Time (akdt) | Wind (mph) | Vis. (mi.) | Weather | Sky Cond. | Temperature (ºF) | Relative Humidity | Wind Chill (°F) | Heat Index (°F) | Pressure | Precipitation (in) | ||||||
|---|---|---|---|---|---|---|---|---|---|---|---|---|---|---|---|---|---|
| Air | Dwpt | 6 hour | altimeter (in) | sea level (mb) | 1 hr | 3 hr | 6 hr | ||||||||||
| Max. | Min. | ||||||||||||||||
| 30 | 20:55 | NE 1 | 10.00 | Mostly Cloudy | FEW025 SCT095 BKN110 | 44.6 | 44.6 | 100% | 29.78 | 1008.9 | |||||||
| 30 | 19:55 | Vrbl 3 | 10.00 | Mostly Cloudy | BKN100 BKN140 | 44.6 | 44.6 | 100% | 29.79 | 1009.4 | |||||||
| 30 | 18:55 | Vrbl 2 | 10.00 | Mostly Cloudy | BKN046 | 44.4 | 44.1 | 99% | 29.81 | 1010.0 | 0.13 | ||||||
| 30 | 17:55 | Vrbl 1 | 10.00 | Light Showers Rain | OVC049 | 44.6 | 42.8 | 93% | 29.83 | 1010.7 | 0.04 | ||||||
| 30 | 16:55 | Vrbl 5 | 10.00 | Rain | OVC032 | 44.6 | 42.8 | 93% | 43 | 29.85 | 1011.3 | 0.09 | |||||
| 30 | 15:55 | NE 9 | 10.00 | Light Showers Rain | BKN017 | 47.8 | 46.6 | 48 | 46.4 | 95% | 44 | 29.87 | 1011.7 | 0.04 | |||
| 30 | 14:55 | NE 9 | 10.00 | Light Rain | BKN009 | 48.2 | 46.4 | 94% | 45 | 29.88 | 1012.3 | 0.03 | |||||
| 30 | 13:55 | NE 12 | 9.00 | Light Rain | BKN008 | 48.2 | 46.4 | 94% | 44 | 29.9 | 1013.1 | 0.01 | |||||
| 30 | 12:55 | NE 10 | 6.00 | Light Showers Rain | OVC005 | 46.8 | 46.2 | 98% | 42 | 29.92 | 1013.7 | ||||||
| 30 | 11:55 | NE 12 | 4.00 | Light Showers Rain | BKN005 | 46.4 | 46.4 | 100% | 42 | 29.93 | 1014.1 | ||||||
| 30 | 10:55 | NE 12 | 10.00 | Overcast | OVC010 | 46.4 | 44.6 | 93% | 42 | 29.95 | 1014.6 | ||||||
| 30 | 09:55 | NE 12 | 10.00 | Overcast | OVC010 | 46.8 | 44.4 | 49.8 | 46.4 | 92% | 42 | 29.95 | 1014.7 | ||||
| 30 | 08:55 | NE 13 | 10.00 | Mostly Cloudy | BKN012 | 46.4 | 44.6 | 93% | 41 | 29.96 | 1015.0 | ||||||
| 30 | 07:55 | NE 12 | 6.00 | Mostly Cloudy | BKN013 | 48.2 | 44.6 | 87% | 44 | 29.98 | 1015.6 | ||||||
| 30 | 05:55 | NE 15 | 10.00 | Mostly Cloudy | BKN014 | 50 | 44.6 | 82% | 45 | 30 | 1015.9 | ||||||
| 30 | 04:55 | NE 16 | 10.00 | Mostly Cloudy | BKN012 BKN034 | 50 | 48.2 | 94% | 45 | 30 | 1016.0 | ||||||
| 30 | 03:55 | NE 8 | 10.00 | Mostly Cloudy | BKN010 | 47.5 | 46.2 | 48.6 | 46.4 | 95% | 44 | 30.01 | 1016.5 | ||||
| 30 | 02:55 | Vrbl 6 | 10.00 | Overcast | OVC009 | 48.2 | 46.4 | 94% | 46 | 30.02 | 1016.8 | ||||||
| 28 | 09:55 | NE 21 G 28 | 10.00 | Mostly Cloudy and Breezy | BKN016 | 53.4 | 50.4 | 53.4 | 50.7 | 89% | 29.48 | 998.2 | 0.01 | 0.02 | |||
| 28 | 08:55 | NE 14 G 25 | 10.00 | Overcast | OVC008 | 53.6 | 51.8 | 94% | 29.48 | 998.3 | |||||||
| 28 | 07:55 | NE 16 | 3.00 | Drizzle | OVC003 | 53.6 | 51.8 | 94% | 29.47 | 998.0 | |||||||
| 28 | 05:55 | NE 14 G 21 | 1.75 | Light Showers Rain Fog/Mist | OVC003 | 51.8 | 51.8 | 100% | 29.48 | 998.5 | 0.01 | ||||||
| 28 | 04:55 | NE 14 | 3.00 | Light Drizzle Fog/Mist | OVC003 | 51.8 | 51.8 | 100% | 29.48 | 998.5 | |||||||
| Date | Time (akdt) | Wind (mph) | Vis. (mi.) | Weather | Sky Cond. | Air | Dwpt | Max. | Min. | Relative Humidity | Wind Chill (°F) | Heat Index (°F) | altimeter (in) | sea level (mb) | 1 hr | 3 hr | 6 hr |
| 6 hour | |||||||||||||||||
| Temperature (ºF) | Pressure | Precipitation (in) | |||||||||||||||